Weather History for Keene, NH

Change the Weather History Date:

Monday, January 21, 2013

  Actual Average Record
Temperature  
Mean Temperature 20 °F -  
Max Temperature 24 °F 30 °F 50 °F (1957)
Min Temperature 15 °F 8 °F -27 °F (1994)
Degree Days  
Heating Degree Days 46    
Moisture  
Dew Point 6 °F    
Average Humidity 56    
Maximum Humidity 93    
Minimum Humidity 39    
Precipitation  
Precipitation 0.00 in - - ()
Sea Level Pressure  
Sea Level Pressure 29.95 in    
Wind  
Wind Speed 6 mph (SW)    
Max Wind Speed 14 mph    
Max Gust Speed 21 mph    
Visibility 9 miles    
Events      
Averages and records for this station are not official NWS values.
T = Trace of Precipitation, MM = Missing Value Source: NWS Daily Summary

Daily Weather History Graph

Daily Weather History Graph

Search for Another Location

Airport:

Trip Planner

Search our weather history database for the weather conditions in past years. The results will help you decide how hot, cold, wet, or windy it might be!

Date:

Astronomy

Jan. 21, 2013 Rise Set
Actual Time 7:13 AM EST 4:47 PM EST
Civil Twilight 6:42 AM EST 5:18 PM EST
Nautical Twilight 6:08 AM EST 5:53 PM EST
Astronomical Twilight 5:34 AM EST 6:27 PM EST
Moon 12:25 PM EST (1/21) 2:39 AM EST (1/21)
Length of Visible Light 10h 36m
Length of Day
9h 34m
Waxing Gibbous, 75% of the Moon is Illuminated
Jan 21
Waxing Gibbous
Jan 26
Full
Feb 3
Last Quarter
Feb 10
New
Feb 17
First Quarter

Hourly Weather History & Observations

Time (EST) Temp. Windchill Dew Point Humidity Pressure Visibility Wind Dir Wind Speed Gust Speed Precip Events Conditions
12:15 AM 24.8 °F 12.9 °F 6.8 °F 46% 29.95 in 10.0 mi NW 13.8 mph - N/A   Overcast
12:35 AM 23.0 °F 12.4 °F 3.2 °F 43% 29.96 in 10.0 mi West 10.4 mph 17.3 mph N/A   Mostly Cloudy
1:15 AM 21.2 °F 8.3 °F 1.4 °F 42% 29.97 in 10.0 mi West 13.8 mph 18.4 mph N/A   Overcast
1:35 AM 21.2 °F 9.5 °F 1.4 °F 42% 29.98 in 10.0 mi West 11.5 mph 20.7 mph N/A   Mostly Cloudy
1:55 AM 21.2 °F 11.7 °F -0.4 °F 39% 29.98 in 10.0 mi West 8.1 mph 18.4 mph N/A   Mostly Cloudy
2:15 AM 21.2 °F 12.6 °F -0.4 °F 39% 29.99 in 10.0 mi West 6.9 mph - N/A   Mostly Cloudy
2:35 AM 19.4 °F 12.8 °F 1.4 °F 46% 30.00 in 10.0 mi West 4.6 mph - N/A   Scattered Clouds
2:55 AM 19.4 °F 14.3 °F -0.4 °F 42% 29.99 in 10.0 mi West 3.5 mph - N/A   Partly Cloudy
3:15 AM 19.4 °F 12.8 °F -0.4 °F 42% 30.00 in 10.0 mi West 4.6 mph - N/A   Partly Cloudy
3:55 AM 19.4 °F 12.8 °F -0.4 °F 42% 30.00 in 10.0 mi West 4.6 mph - N/A   Clear
4:15 AM 19.4 °F 12.8 °F -0.4 °F 42% 29.99 in 10.0 mi WSW 4.6 mph - N/A   Clear
4:35 AM 17.6 °F 10.7 °F -0.4 °F 45% 30.00 in 10.0 mi West 4.6 mph - N/A   Clear
4:55 AM 17.6 °F - -0.4 °F 45% 30.00 in 10.0 mi Calm Calm - N/A   Clear
5:15 AM 17.6 °F 12.3 °F -0.4 °F 45% 30.00 in 10.0 mi SW 3.5 mph - N/A   Clear
6:15 AM 15.8 °F - -0.4 °F 49% 30.02 in 10.0 mi Calm Calm - N/A   Clear
6:35 AM 15.8 °F - -0.4 °F 49% 30.02 in 10.0 mi Calm Calm - N/A   Scattered Clouds
6:55 AM 15.8 °F - 1.4 °F 53% 30.03 in 10.0 mi Calm Calm - N/A   Mostly Cloudy
7:15 AM 15.8 °F - 1.4 °F 53% 30.03 in 10.0 mi Calm Calm - N/A   Mostly Cloudy
7:35 AM 15.8 °F 10.2 °F 1.4 °F 53% 30.03 in 10.0 mi SSW 3.5 mph - N/A   Mostly Cloudy
7:55 AM 15.8 °F 10.2 °F 1.4 °F 53% 30.03 in 10.0 mi SSW 3.5 mph - N/A   Mostly Cloudy
8:15 AM 15.8 °F - 5.0 °F 62% 30.03 in 10.0 mi Calm Calm - N/A   Overcast
8:55 AM 19.4 °F 11.5 °F 3.2 °F 49% 30.04 in 10.0 mi SSW 5.8 mph - N/A   Mostly Cloudy
9:15 AM 19.4 °F 11.5 °F 3.2 °F 49% 30.05 in 10.0 mi SW 5.8 mph - N/A   Scattered Clouds
9:35 AM 19.4 °F 12.8 °F 3.2 °F 49% 30.04 in 10.0 mi South 4.6 mph - N/A   Mostly Cloudy
10:15 AM 21.2 °F 14.9 °F 3.2 °F 46% 30.04 in 10.0 mi SSW 4.6 mph - N/A   Scattered Clouds
10:35 AM 21.2 °F 16.4 °F 3.2 °F 46% 30.04 in 10.0 mi SW 3.5 mph - N/A   Mostly Cloudy
11:15 AM 21.2 °F 16.4 °F 3.2 °F 46% 30.01 in 10.0 mi WSW 3.5 mph - N/A   Mostly Cloudy
11:35 AM 21.2 °F 13.6 °F 3.2 °F 46% 30.00 in 10.0 mi SSW 5.8 mph - N/A   Mostly Cloudy
11:55 AM 23.0 °F 18.4 °F 5.0 °F 46% 29.98 in 10.0 mi WNW 3.5 mph - N/A   Scattered Clouds
12:15 PM 23.0 °F 13.1 °F 3.2 °F 43% 29.97 in 10.0 mi South 9.2 mph - N/A   Mostly Cloudy
12:35 PM 23.0 °F 15.8 °F 5.0 °F 46% 29.96 in 10.0 mi SSW 5.8 mph - N/A   Overcast
12:55 PM 23.0 °F 13.1 °F 5.0 °F 46% 29.95 in 10.0 mi SSW 9.2 mph - N/A   Mostly Cloudy
1:35 PM 23.0 °F 12.4 °F 6.8 °F 50% 29.94 in 10.0 mi SSW 10.4 mph 18.4 mph N/A   Partly Cloudy
1:55 PM 24.8 °F 14.6 °F 6.8 °F 46% 29.93 in 10.0 mi SSW 10.4 mph - N/A   Clear
2:15 PM 24.8 °F 14.6 °F 6.8 °F 46% 29.93 in 10.0 mi SSW 10.4 mph 17.3 mph N/A   Partly Cloudy
2:35 PM 24.8 °F 16.1 °F 6.8 °F 46% 29.93 in 10.0 mi WSW 8.1 mph - N/A   Partly Cloudy
2:55 PM 24.8 °F 19.1 °F 6.8 °F 46% 29.93 in 10.0 mi SW 4.6 mph - N/A   Partly Cloudy
3:15 PM 24.8 °F 16.1 °F 6.8 °F 46% 29.92 in 10.0 mi SW 8.1 mph - N/A   Mostly Cloudy
3:35 PM 24.8 °F 17.9 °F 6.8 °F 46% 29.91 in 10.0 mi SSW 5.8 mph - N/A   Mostly Cloudy
4:15 PM 24.8 °F 16.9 °F 6.8 °F 46% 29.91 in 10.0 mi SSW 6.9 mph - N/A   Overcast
4:35 PM 24.8 °F 19.1 °F 6.8 °F 46% 29.90 in 10.0 mi SW 4.6 mph - N/A   Overcast
4:55 PM 23.0 °F 13.9 °F 8.6 °F 54% 29.90 in 10.0 mi SSW 8.1 mph - N/A   Overcast
5:15 PM 23.0 °F 13.9 °F 10.4 °F 59% 29.90 in 10.0 mi South 8.1 mph - N/A   Overcast
5:35 PM 21.2 °F 14.9 °F 12.2 °F 68% 29.89 in 10.0 mi South 4.6 mph - N/A   Overcast
5:55 PM 21.2 °F 14.9 °F 12.2 °F 68% 29.90 in 5.0 mi South 4.6 mph - N/A   Overcast
6:35 PM 21.2 °F 16.4 °F 14.0 °F 74% 29.90 in 3.0 mi South 3.5 mph - N/A   Overcast
6:55 PM 21.2 °F - 15.8 °F 80% 29.89 in 3.0 mi Calm Calm - N/A   Overcast
7:15 PM 21.2 °F - 15.8 °F 80% 29.89 in 5.0 mi Calm Calm - N/A   Overcast
7:35 PM 21.2 °F - 15.8 °F 80% 29.89 in 4.0 mi Calm Calm - N/A   Overcast
7:55 PM 21.2 °F - 15.8 °F 80% 29.89 in 5.0 mi Calm Calm - N/A   Overcast
8:15 PM 19.4 °F - 17.6 °F 93% 29.88 in 5.0 mi Calm Calm - N/A   Mostly Cloudy
8:55 PM 19.4 °F - 15.8 °F 86% 29.87 in 10.0 mi Calm Calm - N/A   Clear
9:15 PM 17.6 °F - 14.0 °F 86% 29.85 in 10.0 mi Calm Calm - N/A   Clear
9:35 PM 17.6 °F - 14.0 °F 86% 29.84 in 10.0 mi Calm Calm - N/A   Clear
9:55 PM 15.8 °F - 12.2 °F 86% 29.83 in 10.0 mi Calm Calm - N/A   Mostly Cloudy
10:15 PM 15.8 °F - 12.2 °F 86% 29.82 in 10.0 mi Calm Calm - N/A   Overcast
10:35 PM 17.6 °F - 14.0 °F 86% 29.81 in 10.0 mi Calm Calm - N/A   Overcast
11:35 PM 17.6 °F - 14.0 °F 86% 29.78 in 10.0 mi Calm Calm - N/A   Overcast
11:55 PM 17.6 °F - 14.0 °F 86% 29.76 in 10.0 mi Calm Calm - N/A   Overcast